Location: Saluda
(35.2377°N, 82.3468°W)
Time: 05:30:36
(UTC+00:00)

Vanguard 2 - Pass Details

Date: 08 October 2022
Orbit: 553 x 2933 km, 32.9° (Epoch: 26 November)

Event Time Altitude Azimuth Distance (km) Brightness Sun altitude
Rises 18:14:59 0° 261° (W) 4,238 11.6 46.5°
Reaches altitude 10° 18:17:23 10° 260° (W) 3,519 11.4 46.3°
Maximum altitude 18:26:57 80° 175° (S) 2,034 10.7 45.5°
Drops below altitude 10° 18:42:39 10° 92° (E) 5,486 11.8 44.0°
Sets 18:47:24 0° 91° (E) 6,672 12.1 43.5°
